Terminal Aerodrome Forecast
Issued by NWS Wakefield, VA

Home | Current Version | Previous Version | Text Only | Print | Product List | Glossary On
Versions: 1 2 3 4 5 6 7 8 9 10 11 12 13 14 15 16 17 18 19
000
FTUS41 KAKQ 261700
TAFRIC
TAF
KRIC 261734Z 2618/2718 01013G20KT 4SM -RA BR OVC008
      TEMPO 2618/2622 2SM RA BR
     FM270200 35008KT P6SM OVC015
     FM270300 VRB03KT P6SM OVC020
     FM271200 VRB03KT 4SM -RA BR OVC015=

USA.gov is the U.S. government's official web portal to all federal, state and local government web resources and services.